Location: Caixon
(43.4106°N, 0.0273°E)
Time: 22:42:52
(UTC+00:00)

Cosmos 1455 Rocket - Pass Details

Date: 16 October 2021
Orbit: 604 x 630 km, 82.5° (Epoch: 07 December)

Event Time Altitude Azimuth Distance (km) Brightness Sun altitude
Rises 05:34:21 0° 355° (N) 2,933 6.4 -8.2°
Reaches altitude 10° 05:36:38 10° 359° (N) 2,020 5.6 -7.8°
Maximum altitude 05:41:04 59° 79° (E) 729 3.8 -7.0°
Drops below altitude 10° 05:45:27 10° 160° (SSE) 1,998 6.1 -6.2°
Sets 05:47:41 0° 164° (SSE) 2,897 6.8 -5.8°
